Zurück zum Katalog

TDRS 11

AktivKommunikationGEO
NORAD 39070·PAYLOAD·🇺🇸 United States

Gestartet Jan 31, 2013 von Cape Canaveral Space Force Station

Loading…

TLE

AktuellSource: Space-Track

Epoche: Sep 14, 2026, 18:06 UTC

1 39070U 13004A   26257.75447418  .00000073  00000-0  00000-0 0  9999
2 39070   3.6570  32.5635 0003561  43.8679  14.5624  1.00268292 47595

Verfolge TDRS 11 in Echtzeit mit AllMySat

Download on the App Store